| time (UTC) | temp C | wind direction | speed KPH | gust KPH | rain 1hr cm | rain 24hr cm | rain mn cm | humidity % | barometer mb |
| 20260507030007 | 15 | 90 | 0.0 | 0.0 | 0.00 | 0.00 | 0.00 | 66 | 1014.8 |
| 20260507024504 | 15 | 90 | 0.0 | 0.0 | 0.00 | 0.00 | 0.00 | 64 | 1014.7 |
| 20260507023003 | 16 | 90 | 0.0 | 0.0 | 0.00 | 0.00 | 0.00 | 64 | 1014.7 |
| 20260507021501 | 16 | 90 | 0.0 | 0.0 | 0.00 | 0.00 | 0.00 | 62 | 1014.5 |
| 20260507020101 | 16 | 90 | 1.6 | 0.0 | 0.00 | 0.00 | 0.00 | 62 | 1014.7 |
| 20260507014600 | 16 | 90 | 0.0 | 0.0 | 0.00 | 0.00 | 0.00 | 59 | 1014.7 |
| 20260507013058 | 16 | 90 | 0.0 | 0.0 | 0.00 | 0.00 | 0.00 | 57 | 1014.5 |
| 20260507011600 | 16 | 90 | 0.0 | 0.0 | 0.00 | 0.00 | 0.00 | 55 | 1014.3 |
| 20260507010056 | 16 | 90 | 0.0 | 0.0 | 0.00 | 0.00 | 0.00 | 55 | 1014.0 |
| 20260507004555 | 16 | 90 | 0.0 | 0.0 | 0.00 | 0.00 | 0.00 | 56 | 1014.0 |
| 20260507003053 | 16 | 90 | 0.0 | 0.0 | 0.00 | 0.00 | 0.00 | 56 | 1013.8 |
| 20260507001554 | 16 | 90 | 0.0 | 0.0 | 0.00 | 0.00 | 0.00 | 56 | 1013.8 |
| 20260507000053 | 16 | 90 | 0.0 | 0.0 | 0.00 | 0.00 | 0.00 | 55 | 1014.1 |
| 20260506234603 | 16 | 90 | 0.0 | 0.0 | 0.00 | 0.00 | 0.00 | 55 | 1014.4 |
| 20260506233046 | 16 | 90 | 0.0 | 0.0 | 0.00 | 0.00 | 0.00 | 54 | 1014.5 |
| 20260506231544 | 17 | 90 | 0.0 | 0.0 | 0.00 | 0.00 | 0.00 | 53 | 1014.6 |
| 20260506230043 | 17 | 90 | 0.0 | 0.0 | 0.00 | 0.00 | 0.00 | 53 | 1014.7 |
| 20260506224545 | 17 | 90 | 0.0 | 0.0 | 0.00 | 0.00 | 0.00 | 52 | 1014.7 |
| 20260506223048 | 17 | 90 | 0.0 | 0.0 | 0.00 | 0.00 | 0.00 | 53 | 1014.7 |
| 20260506221540 | 17 | 90 | 0.0 | 0.0 | 0.00 | 0.00 | 0.00 | 53 | 1014.8 |
| 20260506220039 | 17 | 90 | 0.0 | 0.0 | 0.00 | 0.00 | 0.00 | 53 | 1014.8 |
| 20260506214540 | 17 | 90 | 1.6 | 0.0 | 0.00 | 0.00 | 0.00 | 52 | 1014.8 |
| 20260506213034 | 17 | 90 | 0.0 | 0.0 | 0.00 | 0.00 | 0.00 | 51 | 1014.9 |
| 20260506211532 | 18 | 90 | 0.0 | 0.0 | 0.00 | 0.00 | 0.00 | 51 | 1015.2 |
| 20260506210035 | 18 | 90 | 0.0 | 0.0 | 0.00 | 0.00 | 0.00 | 54 | 1015.3 |
| 20260506204545 | 18 | 90 | 1.6 | 0.0 | 0.00 | 0.00 | 0.00 | 51 | 1015.4 |
| 20260506203030 | 18 | 90 | 0.0 | 0.0 | 0.00 | 0.00 | 0.00 | 47 | 1015.4 |
| 20260506201532 | 18 | 90 | 0.0 | 0.0 | 0.00 | 0.00 | 0.00 | 46 | 1015.2 |
| 20260506200025 | 19 | 90 | 0.0 | 0.0 | 0.00 | 0.00 | 0.00 | 46 | 1015.2 |
| 20260506194523 | 19 | 90 | 0.0 | 0.0 | 0.00 | 0.00 | 0.00 | 45 | 1015.0 |
| 20260506193022 | 19 | 90 | 0.0 | 0.0 | 0.00 | 0.00 | 0.00 | 44 | 1014.8 |
| 20260506191522 | 19 | 90 | 1.6 | 0.0 | 0.00 | 0.00 | 0.00 | 44 | 1014.6 |
| 20260506190021 | 20 | 90 | 1.6 | 0.0 | 0.00 | 0.00 | 0.00 | 43 | 1014.4 |
| 20260506184520 | 20 | 126 | 1.6 | 0.0 | 0.00 | 0.00 | 0.00 | 43 | 1014.4 |
| 20260506183021 | 20 | 126 | 0.0 | 0.0 | 0.00 | 0.00 | 0.00 | 42 | 1014.3 |
| 20260506181525 | 20 | 126 | 0.0 | 0.0 | 0.00 | 0.00 | 0.00 | 41 | 1014.0 |
| 20260506180020 | 21 | 126 | 1.6 | 0.0 | 0.00 | 0.00 | 0.00 | 37 | 1014.0 |
| 20260506174518 | 21 | 155 | 3.2 | 0.0 | 0.00 | 0.00 | 0.00 | 37 | 1013.8 |
| 20260506173018 | 21 | 140 | 4.8 | 0.0 | 0.00 | 0.00 | 0.00 | 37 | 1013.6 |
| 20260506171530 | 21 | 125 | 6.4 | 0.0 | 0.00 | 0.00 | 0.00 | 37 | 1013.6 |
| 20260506170017 | 21 | 150 | 6.4 | 0.0 | 0.00 | 0.00 | 0.00 | 37 | 1013.5 |
| 20260506164519 | 21 | 201 | 8.0 | 0.0 | 0.00 | 0.00 | 0.00 | 38 | 1013.4 |
| 20260506163017 | 21 | 155 | 8.0 | 0.0 | 0.00 | 0.00 | 0.00 | 37 | 1013.5 |
| 20260506161514 | 22 | 165 | 8.0 | 0.0 | 0.00 | 0.00 | 0.00 | 35 | 1013.4 |
| 20260506160021 | 22 | 144 | 11.3 | 0.0 | 0.00 | 0.00 | 0.00 | 35 | 1013.4 |
| 20260506154514 | 22 | 124 | 11.3 | 0.0 | 0.00 | 0.00 | 0.00 | 35 | 1013.4 |
| 20260506153014 | 21 | 149 | 11.3 | 0.0 | 0.00 | 0.00 | 0.00 | 36 | 1013.6 |
| 20260506151520 | 22 | 157 | 11.3 | 0.0 | 0.00 | 0.00 | 0.00 | 37 | 1013.6 |
| 20260506150025 | 22 | 171 | 8.0 | 0.0 | 0.00 | 0.00 | 0.00 | 38 | 1013.6 |
| 20260506144513 | 22 | 136 | 12.9 | 0.0 | 0.00 | 0.00 | 0.00 | 40 | 1013.6 |
| 20260506143033 | 22 | 133 | 16.1 | 0.0 | 0.00 | 0.00 | 0.00 | 40 | 1013.7 |
| 20260506141512 | 22 | 154 | 11.3 | 0.0 | 0.00 | 0.00 | 0.00 | 41 | 1013.7 |
| 20260506140013 | 22 | 196 | 12.9 | 0.0 | 0.00 | 0.00 | 0.00 | 41 | 1013.7 |
| 20260506134511 | 22 | 145 | 11.3 | 0.0 | 0.00 | 0.00 | 0.00 | 42 | 1013.9 |
| 20260506133009 | 22 | 218 | 12.9 | 0.0 | 0.00 | 0.00 | 0.00 | 42 | 1013.9 |
| 20260506131514 | 22 | 171 | 11.3 | 0.0 | 0.00 | 0.00 | 0.00 | 41 | 1013.9 |
| 20260506130010 | 22 | 144 | 11.3 | 0.0 | 0.00 | 0.00 | 0.00 | 40 | 1013.9 |
| 20260506124508 | 22 | 163 | 11.3 | 0.0 | 0.00 | 0.00 | 0.00 | 40 | 1014.0 |
| 20260506123008 | 22 | 196 | 9.7 | 0.0 | 0.00 | 0.00 | 0.00 | 39 | 1014.0 |
| 20260506121508 | 22 | 176 | 9.7 | 0.0 | 0.00 | 0.00 | 0.00 | 38 | 1014.2 |
| 20260506120007 | 22 | 161 | 9.7 | 0.0 | 0.00 | 0.00 | 0.00 | 36 | 1014.3 |
| 20260506114507 | 22 | 198 | 9.7 | 0.0 | 0.00 | 0.00 | 0.00 | 37 | 1014.4 |
| 20260506113007 | 22 | 131 | 9.7 | 0.0 | 0.00 | 0.00 | 0.00 | 41 | 1014.5 |
| 20260506111508 | 22 | 146 | 8.0 | 0.0 | 0.00 | 0.00 | 0.00 | 40 | 1014.5 |
| 20260506110006 | 21 | 213 | 11.3 | 0.0 | 0.00 | 0.00 | 0.00 | 41 | 1014.6 |
| 20260506104503 | 21 | 123 | 11.3 | 0.0 | 0.00 | 0.00 | 0.00 | 43 | 1014.6 |
| 20260506103003 | 22 | 209 | 8.0 | 0.0 | 0.00 | 0.00 | 0.00 | 40 | 1014.6 |
| 20260506101606 | 22 | 138 | 9.7 | 0.0 | 0.00 | 0.00 | 0.00 | 41 | 1014.6 |
| 20260506100104 | 22 | 161 | 9.7 | 0.0 | 0.00 | 0.00 | 0.00 | 42 | 1014.7 |
| 20260506094600 | 22 | 184 | 4.8 | 0.0 | 0.00 | 0.00 | 0.00 | 42 | 1014.7 |
| 20260506093105 | 22 | 157 | 8.0 | 0.0 | 0.00 | 0.00 | 0.00 | 43 | 1014.7 |
| 20260506091557 | 22 | 117 | 6.4 | 0.0 | 0.00 | 0.00 | 0.00 | 42 | 1014.8 |
| 20260506090100 | 21 | 138 | 6.4 | 0.0 | 0.00 | 0.00 | 0.00 | 43 | 1014.8 |
| 20260506084553 | 21 | 173 | 6.4 | 0.0 | 0.00 | 0.00 | 0.00 | 42 | 1014.7 |
| 20260506083051 | 21 | 198 | 6.4 | 0.0 | 0.00 | 0.00 | 0.00 | 44 | 1014.8 |
| 20260506081551 | 21 | 224 | 8.0 | 0.0 | 0.00 | 0.00 | 0.00 | 44 | 1014.7 |
| 20260506073047 | 21 | 125 | 4.8 | 0.0 | 0.00 | 0.00 | 0.00 | 45 | 1014.4 |
| 20260506071600 | 21 | 117 | 1.6 | 0.0 | 0.00 | 0.00 | 0.00 | 45 | 1014.3 |
| 20260506061543 | 22 | 67 | 0.0 | 0.0 | 0.00 | 0.00 | 0.00 | 39 | 1014.3 |
| 20260506044525 | 17 | 67 | 0.0 | 0.0 | 0.00 | 0.00 | 0.00 | 55 | 1013.8 |
| 20260506043022 | 16 | 67 | 0.0 | 0.0 | 0.00 | 0.00 | 0.00 | 57 | 1013.9 |
| 20260506041528 | 16 | 67 | 0.0 | 0.0 | 0.00 | 0.00 | 0.00 | 58 | 1013.7 |
| 20260506040025 | 15 | 67 | 0.0 | 0.0 | 0.00 | 0.00 | 0.00 | 59 | 1013.6 |
| 20260506034520 | 15 | 67 | 0.0 | 0.0 | 0.00 | 0.00 | 0.00 | 59 | 1013.4 |
| 20260506033026 | 15 | 67 | 0.0 | 0.0 | 0.00 | 0.00 | 0.00 | 59 | 1013.3 |
| 20260506031523 | 16 | 67 | 0.0 | 0.0 | 0.00 | 0.00 | 0.00 | 59 | 1013.3 |